This demonstration page uses our WeatherBlox Daily Observations layout. Learn more.

Left ArrowRight Arrow

Hourly Observations for October 31, 2016

Temp ( °F °C ) Dew Point ( °F °C ) Humidity (%) Winds ( mph kmh ) Pressure ( in mb ) Visibility ( mi km ) Precip ( " mm )
12:54 am 00:54 Mostly Clear 47 8.3 45 7.2 93 93 SSE 7 11 30.06 1018 10 16.0934 0 0
1:10 am 01:10 Mostly Cloudy 48 9 46 8 94 94 S 13 20 30.09 1019 10 16.0934 0 0
1:54 am 01:54 Mostly Cloudy 49 9.4 47 8.3 93 93 S 13 20 30.04 1017 9 14.48406 0 0
2:46 am 02:46 Cloudy with Mist and Fog 52 11 48 9 88 88 S 12 19 30.03 1017 6 9.65604 0 0
2:54 am 02:54 Cloudy with Mist and Fog 51 10.6 49 9.4 92 92 S 9 15 30.02 1017 6 9.65604 0 0
3:32 am 03:32 Cloudy with Mist and Fog 52 11.1 50 10 93 93 S 10 17 30 1016 6 9.65604 0 0
3:54 am 03:54 Cloudy with Mist and Fog 53 11.7 51 10.6 93 93 S 13 20 29.98 1015 6 9.65604 0 0
4:54 am 04:54 Cloudy 54 12.2 52 11.1 93 93 S 12 19 29.95 1014 7 11.26538 0 0
5:54 am 05:54 Cloudy with Mist and Fog 54 12.2 53 11.7 97 97 SSE 13 20 29.91 1013 4 6.43736 0 0
6:07 am 06:07 Cloudy with Mist and Fog 54 12.2 53 11.7 97 97 S 16 26 29.91 1013 4 6.43736 0 0
6:38 am 06:38 Cloudy with Mist and Fog 55 13 54 12 94 94 S 15 24 29.91 1013 4 6.43736 0 0
6:54 am 06:54 Cloudy with Mist and Fog 55 12.8 54 12.2 96 96 S 12 19 29.89 1012 5 8.0467 0 0
7:54 am 07:54 Cloudy with Mist and Fog 55 12.8 54 12.2 96 96 S 16 26 29.86 1011 5 8.0467 0 0
8:54 am 08:54 Cloudy with Mist and Fog 56 13.3 54 12.2 93 93 SSE 20 31 29.83 1010 5 8.0467 0 0
9:54 am 09:54 Cloudy 57 13.9 54 12.2 90 90 S 16 26 29.82 1010 8 12.87472 0 0
10:54 am 10:54 Cloudy 59 15 55 12.8 87 87 S 15 24 29.8 1009 9 14.48406 0 0
11:54 am 11:54 Cloudy 61 16.1 56 13.3 84 84 S 16 26 29.77 1008 8 12.87472 0 0
12:54 pm 12:54 Cloudy 63 17.2 56 13.3 78 78 S 15 24 29.74 1007 9 14.48406 0 0
1:15 pm 13:15 Cloudy 64 18 55 13 73 73 S 16 26 29.71 1006 9 14.48406 0 0
1:54 pm 13:54 Mostly Cloudy 67 19.4 56 13.3 68 68 S 18 30 29.68 1005 10 16.0934 0 0
2:25 pm 14:25 Mostly Sunny 70 21.1 57 13.9 64 64 SSW 21 33 29.62 1003 10 16.0934 0 0
2:54 pm 14:54 Sunny 69 20.6 57 13.9 66 66 S 15 24 29.65 1004 10 16.0934 0 0
3:54 pm 15:54 Sunny 71 21.7 57 13.9 61 61 S 14 22 29.63 1003 10 16.0934 0 0
4:54 pm 16:54 Sunny 71 21.7 57 13.9 61 61 SSW 9 15 29.64 1004 10 16.0934 0 0
5:54 pm 17:54 Sunny 71 21.7 57 13.9 61 61 W 5 7 29.67 1005 10 16.0934 0 0
6:54 pm 18:54 Clear 62 16.7 56 13.3 80 80 SSE 6 9 29.68 1005 10 16.0934 0 0
7:54 pm 19:54 Clear 61 16.1 56 13.3 84 84 SE 5 7 29.69 1006 9 14.48406 0 0
8:54 pm 20:54 Clear 60 15.6 56 13.3 86 86 Calm 29.69 1006 10 16.0934 0 0
9:54 pm 21:54 Clear 59 15 54 12.2 83 83 Calm 29.69 1006 10 16.0934 0 0
10:54 pm 22:54 Clear 56 13.3 53 11.7 90 90 Calm 29.71 1006 10 16.0934 0 0
11:54 pm 23:54 Clear 52 11.1 50 10 93 93 Calm 29.72 1006 9 14.48406 0 0

Powered by AerisWeather